Regional Weather Roundup
Issued by NWS

Home | Current Version | Previous Version | Text Only | Print | Product List | Glossary On
Versions: 1 2 3 4 5 6 7 8 9 10 11 12 13 14 15 16 17 18 19 20 21 22 23 24 25 26 27 28 29 30 31 32 33 34 35 36 37 38 39 40 41 42 43 44 45 46 47 48 49 50
000
ASUS42 KKEY 282310
RWRKEY

FLORIDA REGIONAL WEATHER ROUNDUP FOR THE FLORIDA KEYS
NATIONAL WEATHER SERVICE KEY WEST FLORIDA
600 PM EST SUN DEC 28 2014

...SOUTH FLORIDA AND THE KEYS...

CITY           SKY/WX    TMP DP  RH WIND       PRES   REMARKS
FORT MYERS     CLEAR     75  65  70 SW3       30.09R
SW REGIONAL AP CLEAR     75  64  68 W3        30.10R
NAPLES         CLEAR     75  66  73 S6        30.09S
MIAMI          PTCLDY    76  68  76 SE6       30.12S
WEST KENDALL   CLEAR     76  68  76 SE6       30.11S
HOMESTEAD      CLEAR     75  70  85 E3        30.11S
MARATHON       CLEAR     76  70  82 E3        30.10R
BOCA CHICA NAS CLEAR     75  69  81 E7        30.09S
KEY WEST INTL  CLEAR     77  70  79 E8        30.09S

...INTERNATIONAL WEATHER...

CITY           SKY/WX    TMP DP  RH WIND       PRES   REMARKS
NASSAU BAHAMAS PTCLDY    77  72  83 SE5       30.14R
CANCUN MEXICO  PTCLDY    81  73  78 E8        30.02R
COZUMEL MEXICO MOCLDY    75  73  94 SE3       30.02R

ADJACENT COASTAL WATERS...

STATION/POSITION TIME  SKY/WX   TEMP    WIND        PRES    WAVE
                                AIR SEA DIR/SP/G            HT/PER
                 (UTC)          (F)     (DEG/KT/KT) (MB)    (FT/S)
PULASKI SHOAL LI 2200            74      90/  9/ 10 1018.2R
SAND KEY         2236            77     110/ 12/ 13 1018.8R
SOMBRERO KEY     2300            77     110/ 10/ 11 1020.0R
LONG KEY         2200            77 76  130/  6/  7 1019.9R
MOLASSES REEF    2200            77 79  110/  6/  6 1019.4R
FOWEY ROCKS      2200            77 77  140/  4/  5 1020.0R
Buoy 42080       NOT AVBL

$$


USA.gov is the U.S. government's official web portal to all federal, state and local government web resources and services.